Weather History for Marathon, FL

Change the Weather History Date:

Monday, November 28, 2011

  Actual Average Record
Temperature  
Mean Temperature 77 °F 74 °F  
Max Temperature 83 °F 79 °F 86 °F (1997)
Min Temperature 71 °F 70 °F 57 °F (2013)
Degree Days  
Heating Degree Days 0 0  
Month to date heating degree days 0 0  
Since 1 July heating degree days 0 0  
Cooling Degree Days 12 9  
Month to date cooling degree days 350 307  
Year to date cooling degree days 5129 4746  
Growing Degree Days 26 (Base 50)    
Moisture  
Dew Point 68 °F    
Average Humidity 76    
Maximum Humidity 87    
Minimum Humidity 64    
Precipitation  
Precipitation 0.00 in 0.07 in 0.09 in (2007)
Month to date precipitation 0.30 2.66  
Year to date precipitation 35.81 43.99  
Snow  
Snow 0.00 in - - ()
Month to date snowfall 0.0  
Since 1 July snowfall 0.0  
Since 1 September snowfall 0.0  
Snow Depth 0.00 in    
Sea Level Pressure  
Sea Level Pressure 29.93 in    
Wind  
Wind Speed 7 mph (SSE)    
Max Wind Speed 17 mph    
Max Gust Speed 25 mph    
Visibility 10 miles    
Events      
T = Trace of Precipitation, MM = Missing Value Source: NWS Daily Summary

Daily Weather History Graph

Daily Weather History Graph

Search for Another Location

Airport:

Trip Planner

Search our weather history database for the weather conditions in past years. The results will help you decide how hot, cold, wet, or windy it might be!

Date:

Astronomy

Nov. 28, 2011 Rise Set
Actual Time 6:49 AM EST 5:34 PM EST
Civil Twilight 6:24 AM EST 5:59 PM EST
Nautical Twilight 5:56 AM EST 6:27 PM EST
Astronomical Twilight 5:29 AM EST 6:54 PM EST
Moon 10:00 AM EST (11/28) 9:14 PM EST (11/28)
Length of Visible Light 11h 34m
Length of Day
10h 45m
Waxing Crescent, 15% of the Moon is Illuminated
Nov 28
Waxing Crescent
Dec 2
First Quarter
Dec 10
Full
Dec 17
Last Quarter
Dec 24
New

Hourly Weather History & Observations

Time (EST) Temp. Heat Index Dew Point Humidity Pressure Visibility Wind Dir Wind Speed Gust Speed Precip Events Conditions
12:53 AM 77.0 °F - 64.0 °F 64% 29.95 in 10.0 mi SE 8.1 mph - N/A   Partly Cloudy
1:53 AM 77.0 °F - 64.9 °F 66% 29.94 in 10.0 mi SE 8.1 mph - N/A   Clear
2:53 AM 77.0 °F - 64.0 °F 64% 29.93 in 10.0 mi SE 8.1 mph - N/A   Partly Cloudy
3:53 AM 75.9 °F - 66.9 °F 74% 29.92 in 10.0 mi SE 6.9 mph - N/A   Partly Cloudy
4:53 AM 75.9 °F - 66.9 °F 74% 29.92 in 10.0 mi SSE 6.9 mph - N/A   Mostly Cloudy
5:53 AM 75.9 °F - 66.9 °F 74% 29.92 in 10.0 mi SE 6.9 mph - N/A   Partly Cloudy
6:53 AM 75.9 °F - 66.9 °F 74% 29.94 in 10.0 mi SE 6.9 mph - N/A   Clear
7:53 AM 77.0 °F - 66.9 °F 71% 29.94 in 10.0 mi SE 6.9 mph - N/A   Clear
8:53 AM 79.0 °F - 66.9 °F 66% 29.95 in 10.0 mi SSE 8.1 mph - N/A   Clear
9:53 AM 81.0 °F 83.8 °F 68.0 °F 65% 29.95 in 10.0 mi SSE 6.9 mph - N/A   Partly Cloudy
10:53 AM 81.0 °F 83.8 °F 68.0 °F 65% 29.94 in 10.0 mi SSE 9.2 mph 16.1 mph N/A   Clear
11:53 AM 82.0 °F 85.5 °F 69.1 °F 65% 29.93 in 10.0 mi SSE 8.1 mph - N/A   Clear
12:53 PM 82.9 °F 86.5 °F 69.1 °F 63% 29.92 in 10.0 mi South 5.8 mph - N/A   Partly Cloudy
1:53 PM 82.0 °F 85.5 °F 69.1 °F 65% 29.90 in 10.0 mi South 9.2 mph - N/A   Clear
2:53 PM 81.0 °F 84.4 °F 70.0 °F 69% 29.89 in 10.0 mi South 4.6 mph - N/A   Scattered Clouds
3:53 PM 80.1 °F 83.2 °F 70.0 °F 71% 29.88 in 10.0 mi South 3.5 mph - N/A   Overcast
5:53 PM 77.0 °F - 69.1 °F 76% 29.89 in 10.0 mi South 3.5 mph - N/A   Partly Cloudy
6:53 PM 75.9 °F - 68.0 °F 76% 29.90 in 10.0 mi Calm Calm - N/A   Scattered Clouds
7:53 PM 77.0 °F - 68.0 °F 74% 29.93 in 10.0 mi Calm Calm - N/A   Overcast
8:53 PM 75.0 °F - 70.0 °F 84% 29.94 in 10.0 mi WNW 6.9 mph - N/A   Overcast
9:53 PM 75.0 °F - 70.0 °F 84% 29.95 in 10.0 mi WNW 4.6 mph - N/A   Overcast
10:53 PM 75.0 °F - 71.1 °F 87% 29.95 in 10.0 mi NW 10.4 mph - N/A   Overcast
11:08 PM 73.4 °F - 69.8 °F 88% 29.95 in 10.0 mi NNW 13.8 mph 19.6 mph N/A   Overcast
11:35 PM 71.6 °F - 68.0 °F 88% 29.95 in 10.0 mi NW 13.8 mph 25.3 mph N/A   Overcast
11:53 PM 72.0 °F - 68.0 °F 87% 29.95 in 10.0 mi NNW 15.0 mph 21.9 mph N/A   Overcast